STARLINK-34433

Last updated on Thu Jul 03 2025 00:02:07 GMT+0000 (Coordinated Universal Time)

1 64448U 25130L 25183.58335648 -.01155671 00000+0 -83769-2 0 9990 2 64448 53.1593 179.7789 0001218 65.4946 52.2124 15.75463694 3524
UTC large
Height (km)
Speed (km/s)
/
Latitude / Longitude
Inclination (degrees)
Orbital Period (minutes)
Azimuth
Elevation
Range (km)
Doppler Factor

Next 0 passes for location: London (51.5072 / 0.1276)

Sorry there are no passes over London.